GFSNIL_con_mlcape_021.txt.gz
CAPE
203 127 115 107 51 152 109 157 13 22 18 213 315 384 347 89 113 125 89 39 130 176
213 240 284 123 25 26 94 0 9 13 194 332 269 412 208 102 74 86 74 73 63 104
310 200 126 71 12 14 0 26 7 0 175 357 115 160 72 58 101 138 101 124 114 128
86 50 14 0 1 1 0 17 7 43 226 54 24 56 35 26 66 52 50 49 27 37
89 15 2 0 2 0 0 0 13 8 76 36 70 57 58 46 4 9 11 23 12 0
88 74 35 0 6 0 0 10 6 9 43 24 42 182 51 31 65 34 0 0 7 4
159 91 23 2 10 4 1 7 7 29 70 102 51 138 179 120 50 18 0 0 29 22
171 72 0 4 4 10 13 9 12 37 19 36 0 1 77 105 47 7 5 18 25 39
173 26 9 9 11 0 13 22 13 33 4 0 0 0 0 38 36 20 8 11 0 5
54 1 4 9 5 10 11 11 12 13 0 0 0 0 0 4 31 17 11 24 20 3
75 0 6 6 8 12 4 9 11 34 0 0 0 0 0 14 20 1 0 0 1 1
34 5 62 8 14 2 9 15 0 32 0 0 0 0 0 23 0 4 0 0 0 0
31 87 17 6 21 17 69 42 57 57 0 0 0 0 0 21 10 2 0 0 0 0
102 43 32 41 38 104 164 87 83 29 0 0 0 0 0 4 1 0 0 0 0 0

GFSNIL_con_mlcape_024.txt.gz
CAPE
103 145 133 126 108 79 101 23 0 7 0 0 11 102 130 69 35 55 81 38 86 54
70 89 30 18 38 14 0 7 0 0 4 89 181 203 197 81 62 77 30 21 31 72
100 93 71 1 0 0 0 0 0 0 16 103 48 72 55 63 87 71 49 44 56 65
39 11 0 0 0 0 0 0 0 0 52 9 4 4 7 21 55 29 18 33 30 30
8 0 0 0 0 0 0 0 0 0 60 7 5 21 27 38 21 16 12 6 7 0
10 0 0 0 0 0 0 0 10 4 6 0 19 55 35 26 45 0 0 0 2 2
2 9 0 0 0 0 0 7 7 13 38 30 29 81 116 100 24 0 0 2 13 4
70 20 0 0 0 2 6 6 20 41 19 0 0 0 48 51 12 9 5 23 30 29
89 2 8 0 0 9 13 3 26 15 0 0 0 0 2 25 9 10 15 9 1 1
2 0 6 4 0 4 15 11 25 9 0 0 0 0 0 19 9 3 1 1 3 1
0 0 2 3 0 5 5 8 11 0 0 0 0 0 2 3 1 2 0 3 1 1
0 0 1 3 0 0 0 0 0 0 0 0 0 0 3 6 1 0 1 4 2 1
0 0 2 3 1 0 0 7 0 0 0 0 0 0 0 0 7 0 0 2 0 0
3 13 0 0 3 9 33 33 20 0 0 0 0 0 0 1 0 0 0 0 0 0

GFSNIL_con_mlcape_030.txt.gz
CAPE
287 312 246 159 89 74 77 63 3 0 0 0 0 0 0 0 8 21 17 8 8 14
199 173 76 11 14 22 11 3 0 0 0 0 0 0 0 1 14 20 16 1 20 11
74 30 27 36 27 0 0 0 0 0 0 0 0 6 1 20 12 26 23 21 1 1
12 13 6 4 2 0 0 0 0 0 0 0 0 0 0 0 21 19 16 29 14 24
0 0 0 0 0 0 0 0 0 0 0 0 0 0 0 12 9 0 0 6 16 17
0 0 0 0 0 0 0 0 0 0 0 0 0 5 26 9 15 19 2 0 9 5
0 0 0 0 0 0 0 0 0 0 13 0 0 6 8 43 18 4 0 1 0 0
0 0 0 0 0 0 0 0 9 25 6 0 0 0 0 19 17 6 0 1 4 0
10 7 0 0 0 0 0 17 31 18 0 0 0 0 0 4 0 0 0 5 12 11
14 1 0 0 0 0 3 9 18 2 0 0 0 0 0 0 0 1 2 5 3 0
11 0 0 0 0 1 6 8 6 0 0 0 0 0 0 0 0 2 0 0 0 0
0 0 0 0 0 0 8 4 0 0 0 0 0 0 0 0 1 0 1 1 1 0
0 0 0 0 0 0 0 0 0 0 0 0 0 0 0 1 0 0 0 0 0 0
0 0 0 0 0 0 0 0 0 0 0 0 0 0 0 0 0 0 0 0 0 0

GFSNIL_con_mlcape_033.txt.gz
CAPE
852 1007 1065 824 637 481 443 465 475 488 309 209 157 40 27 109 167 121 114 100 146 146
692 738 612 534 435 345 387 416 373 307 232 149 87 79 93 114 246 196 39 149 269 212
505 463 329 270 267 326 332 272 237 158 57 3 33 167 369 410 389 248 27 50 212 216
268 183 180 236 258 260 195 130 30 0 0 130 240 224 217 332 340 53 34 33 63 85
157 172 176 162 153 113 54 0 0 4 125 256 247 204 116 96 46 5 17 13 17 75
65 88 98 78 43 32 1 0 15 53 62 27 218 194 265 27 8 10 1 2 9 49
15 34 51 51 13 17 10 10 17 14 116 197 164 10 36 61 34 21 9 0 10 61
23 53 59 27 4 1 1 12 16 103 109 45 0 0 4 52 52 30 0 12 4 29
30 61 68 19 0 0 5 68 28 54 20 0 0 0 0 19 13 2 0 0 26 8
51 61 11 0 0 8 20 29 24 35 4 0 6 0 0 0 3 12 5 11 2 5
89 30 5 3 6 14 15 15 24 20 0 0 0 0 0 0 9 7 2 0 0 0
73 6 9 12 17 16 12 8 18 11 0 0 0 0 0 1 2 1 2 2 2 1
19 2 0 0 5 17 18 19 12 0 0 0 0 0 0 3 1 1 1 0 0 0
15 0 1 0 3 7 11 11 0 0 1 0 1 0 0 0 1 0 1 1 0 0